Flag for U.S.A. Weather past 2 weeks in Sedona, Arizona, U.S.A.

Now
61 °F

Clear.


Feels Like: 61 °F
Forecast: 60 / 79 °F
Wind: No wind

Location: Sedona Airport

Current Time: Aug 20, 2014 at 5:58:05 AM

Latest Report: Aug 20, 2014 at 5:15 AM


Visibility: 10 mi

Pressure: 30.11 "Hg

Humidity: 83%

Dew point: 55 °F

Location of SedonaLocation

Historic Weather in Sedona — Graph

°F

Sedona temperature yesterday

Maximum temperature yesterday: 68 °F (at 12:15 AM)
Minimum temperature yesterday: 61 °F (at 1:15 PM)
Average temperature yesterday: 64 °F

Past Weeks' High & Low Weather Summary

 TemperatureHumidityPressure
High95 °F (Aug 10, 12:55 PM)100% (Aug 13, 7:15 AM)30.25 "Hg (Aug 13, 7:15 AM)
Low61 °F (Aug 19, 1:15 PM)11% (Aug 7, 4:35 PM)30.02 "Hg (Aug 19, 3:55 PM)
Average77 °F44%30.16 "Hg
* Reported Aug 5 4:15 AM — Aug 20 4:55 AM, Sedona, Weather by CustomWeather, © 2014

Note: Actual official high and low records may vary slightly from our data, if they occured in-between our weather recording intervals... More about our weather records

Advertising

Sedona weather history for previous 24 hours

 ConditionsComfort  
Time TempWeatherWind HumidityBarometerVisibility
4:55 AM
Aug 20
61 °FClear.No wind83%30.11 "Hg10 mi
4:35 AM61 °FClear.3 mph83%30.10 "Hg10 mi
4:15 AM61 °FClear.3 mph77%30.10 "Hg10 mi
3:55 AM61 °FClear.7 mph77%30.10 "Hg10 mi
3:15 AM61 °FClear.8 mph77%30.09 "Hg10 mi
2:55 AM61 °FClear.9 mph77%30.09 "Hg10 mi
2:35 AM61 °FClear.7 mph77%30.09 "Hg10 mi
2:15 AM61 °FClear.6 mph83%30.09 "Hg10 mi
1:55 AM61 °FClear.5 mph83%30.08 "Hg10 mi
1:15 AM61 °FClear.7 mph83%30.07 "Hg10 mi
12:55 AM61 °FClear.6 mph83%30.08 "Hg10 mi
12:35 AM61 °FClear.7 mph83%30.08 "Hg10 mi
12:15 AM61 °FClear.8 mph83%30.07 "Hg10 mi
11:55 PM
Aug 19
61 °FClear.No wind88%30.07 "Hg10 mi
11:15 PM61 °FClear.3 mph88%30.07 "Hg10 mi
10:55 PM61 °FClear.5 mph83%30.07 "Hg10 mi
10:35 PM61 °FClear.3 mph88%30.07 "Hg10 mi
10:15 PM63 °FPassing clouds.3 mph77%30.06 "Hg10 mi
9:55 PM63 °FPassing clouds.5 mph77%30.06 "Hg10 mi
9:35 PM63 °FOvercast.8 mph83%30.06 "Hg10 mi
9:15 PM63 °FOvercast.9 mph83%30.06 "Hg10 mi
8:55 PM63 °FOvercast.12 mph83%30.05 "Hg10 mi
8:35 PM61 °FOvercast.8 mph83%30.05 "Hg10 mi
8:15 PM61 °FMostly cloudy.6 mph88%30.06 "Hg10 mi
7:55 PM61 °FMostly cloudy.10 mph88%30.07 "Hg10 mi
7:35 PM61 °FLight rain. Overcast.5 mph94%30.07 "Hg10 mi
7:15 PM61 °FHeavy rain. Overcast.20 mph88%30.06 "Hg4 mi
6:55 PM66 °FCloudy.8 mph88%30.05 "Hg10 mi
6:35 PM66 °FBroken clouds.No wind88%30.04 "Hg10 mi
6:15 PM66 °FScattered clouds.No wind88%30.03 "Hg10 mi
5:55 PM66 °FSunny.No wind88%30.03 "Hg10 mi
5:35 PM68 °FSunny.No wind83%30.03 "Hg10 mi
5:15 PM68 °FPartly sunny.No wind83%30.03 "Hg10 mi
4:55 PM68 °FOvercast.No wind83%30.03 "Hg10 mi
4:35 PM66 °FMore clouds than sun.No wind88%30.03 "Hg10 mi
4:15 PM66 °FMore clouds than sun.8 mph88%30.02 "Hg10 mi
3:55 PM68 °FMostly cloudy.8 mph88%30.02 "Hg10 mi
3:35 PM66 °FMostly cloudy.5 mph94%30.03 "Hg10 mi
3:15 PM64 °FMostly cloudy.No wind94%30.05 "Hg10 mi
2:55 PM64 °FCloudy.No wind94%30.04 "Hg10 mi
2:15 PM63 °FLight rain. Cloudy.No wind94%30.08 "Hg7 mi
1:55 PM63 °FRain. Low clouds.5 mph94%30.08 "Hg4 mi
1:35 PM63 °FLight rain. Overcast.9 mph94%30.08 "Hg10 mi
1:15 PM61 °FRain. More clouds than sun.10 mph100%30.08 "Hg10 mi
12:55 PM63 °FLight rain. More clouds than sun.13 mph94%30.07 "Hg10 mi
12:35 PM63 °FLight rain. Mostly cloudy.12 mph94%30.07 "Hg1 mi
12:15 PM63 °FHeavy rain. Low clouds.7 mph94%30.08 "Hg0 mi
11:55 AM63 °FHeavy rain. Low clouds.5 mph94%30.09 "Hg0 mi
11:15 AM63 °FRain. Cloudy.5 mph94%30.09 "Hg7 mi
10:55 AM63 °FMore clouds than sun.5 mph94%30.09 "Hg10 mi
10:35 AM63 °FThundershowers. Cloudy.6 mph94%30.08 "Hg10 mi
10:15 AM63 °FThundershowers. More clouds than sun.9 mph94%30.09 "Hg10 mi
9:55 AM63 °FLight rain. Cloudy.8 mph94%30.08 "Hg10 mi
9:15 AM63 °FThundershowers. Overcast.5 mph94%30.10 "Hg1 mi
8:55 AM63 °FThunderstorms. Cloudy.6 mph94%30.09 "Hg10 mi
8:15 AM63 °FRain. Mostly cloudy.No wind94%30.08 "Hg1 mi
7:55 AM63 °FHeavy rain. Low clouds.No wind94%30.07 "Hg0 mi
7:35 AM63 °FThundershowers. Cloudy.No wind94%30.07 "Hg5 mi
7:15 AM63 °FThundershowers. Cloudy.5 mph94%30.06 "Hg10 mi
6:55 AM63 °FRain. Cloudy.3 mph94%30.06 "Hg5 mi
6:35 AM63 °FRain. Cloudy.No wind94%30.08 "Hg5 mi
6:15 AM63 °FRain. Cloudy.8 mph94%30.08 "Hg7 mi
5:55 AM64 °FRain. Mostly cloudy.5 mph83%30.07 "Hg7 mi
5:35 AM64 °FThundershowers. Overcast.5 mph83%30.06 "Hg10 mi
5:15 AM68 °FThundershowers. Mostly cloudy.No wind73%30.06 "Hg10 mi
Weather by CustomWeather, © 2014

See weather overviewHow to use our weather pages